User: anonymous   Login
Location: Luz Observatory
(34.5000°N, 117.2833°W)
Time: 12:26:17
(UTC-07:00)
Language:

Okean 3 Rocket - Orbit

View from above orbital plane
View from above orbital plane
View from above satellite
View from above satellite

Ground track
Ground track

The orbit data is extracted from the following two-line orbital elements,

1 21398U 91039B   15211.76608814  .00000165  00000-0  18927-4 0  9998
2 21398 082.5249 146.0224 0019944 276.4256 107.7267 14.79498761302262
Epoch (UTC): 30 July 2015 18:23:10
Eccentricity: 0.0019944
inclination: 82.5249°
perigee height: 617 km
apogee height: 645 km
right ascension of ascending node: 146.0224°
argument of perigee: 276.4256°
revolutions per day: 14.79498761
mean anomaly at epoch: 107.7267°
orbit number at epoch: 30226

The dashed part of the orbit path shows where the satellite is in the earth's shadow,  

DLR